Location: ????????
(48.4751°N, 37.6926°E)
Time: 12:46:12
(UTC+00:00)

Cosmos 2227 Rocket - Pass Details

Date: 20 January 2021
Orbit: 837 x 846 km, 71.0° (Epoch: 26 February)

Event Time Altitude Azimuth Distance (km) Brightness Sun altitude
Rises 14:36:23 0° 241° (WSW) 3,392 8.2 -4.8°
Reaches altitude 10° 14:39:08 10° 252° (WSW) 2,462 6.5 -5.2°
Maximum altitude 14:44:03 30° 312° (NW) 1,481 3.8 -6.0°
Drops below altitude 10° 14:49:01 10° 13° (NNE) 2,478 4.3 -6.7°
Sets 14:51:48 0° 25° (NNE) 3,418 4.9 -7.2°
